Clinton, OK

12:39 PM CDT on October 18, 2017 (GMT -0500)
Clinton Municipal

Weather History for KCLK - August, 2011

Change the Weather History Date:

Monday, August 1, 2011

  Actual Average (KCSM) Record (KCSM)
Temperature  
Mean Temperature 92 °F -  
Max Temperature 105 °F 94 °F 111 °F (2012)
Min Temperature 78 °F 70 °F 63 °F (2014)
Cooling Degree Days 26    
Growing Degree Days 42 (Base 50)    
Moisture  
Dew Point 46 °F    
Average Humidity 22    
Maximum Humidity 42    
Minimum Humidity 9    
Precipitation  
Precipitation 0.00 in - - ()
Sea Level Pressure  
Sea Level Pressure 29.99 in    
Wind  
Wind Speed 7 mph (South)    
Max Wind Speed 16 mph    
Max Gust Speed 26 mph    
Visibility 10 miles    
Events      
Averages and records for this station are not official NWS values.
T = Trace of Precipitation, MM = Missing Value Source: NWS Daily Summary

Daily Weather History Graph

Daily Weather History Graph

Search for Another Location

Airport or City:

Trip Planner

Search our weather history database for the weather conditions in past years. The results will help you decide how hot, cold, wet, or windy it might be!

Date:

Astronomy

Aug. 01, 2011 Rise Set
Actual Time 6:43 AM CDT 8:39 PM CDT
Civil Twilight 6:15 AM CDT 9:07 PM CDT
Nautical Twilight 5:41 AM CDT 9:41 PM CDT
Astronomical Twilight 5:05 AM CDT 10:18 PM CDT
Moon 8:54 AM CDT (8/1) 9:44 PM CDT (8/1)
Length of Visible Light 14h 52m
Length of Day
13h 55m
Waxing Crescent, 5% of the Moon is Illuminated
Aug 1
Waxing Crescent
Aug 6
First Quarter
Aug 13
Full
Aug 21
Last Quarter
Aug 28
New

Hourly Weather History & Observations

Time (CDT) Temp. Heat Index Dew Point Humidity Pressure Visibility Wind Dir Wind Speed Gust Speed Precip Events Conditions
12:15 AM 87.8 °F - 50.0 °F 27% 30.03 in 10.0 mi SSE 4.6 mph - N/A   Clear
12:35 AM 86.0 °F - 50.0 °F 29% 30.03 in 10.0 mi SSE 5.8 mph - N/A   Clear
12:55 AM 86.0 °F - 50.0 °F 29% 30.03 in 10.0 mi SSE 6.9 mph - N/A   Clear
1:15 AM 86.0 °F - 50.0 °F 29% 30.03 in 10.0 mi SSE 6.9 mph - N/A   Clear
1:35 AM 86.0 °F - 50.0 °F 29% 30.03 in 10.0 mi SSE 6.9 mph - N/A   Clear
1:55 AM 84.2 °F - 51.8 °F 33% 30.03 in 10.0 mi South 6.9 mph - N/A   Clear
2:15 AM 84.2 °F - 51.8 °F 33% 30.03 in 10.0 mi South 6.9 mph - N/A   Clear
2:55 AM 82.4 °F 81.4 °F 53.6 °F 37% 30.03 in 10.0 mi SSE 8.1 mph - N/A   Clear
3:15 AM 82.4 °F 81.4 °F 53.6 °F 37% 30.03 in 10.0 mi SSE 8.1 mph - N/A   Clear
3:35 AM 84.2 °F 82.8 °F 53.6 °F 35% 30.03 in 10.0 mi SSE 8.1 mph - N/A   Clear
3:55 AM 82.4 °F 81.7 °F 55.4 °F 39% 30.03 in 10.0 mi SSE 6.9 mph - N/A   Clear
4:15 AM 82.4 °F 81.7 °F 55.4 °F 39% 30.03 in 10.0 mi SSE 5.8 mph - N/A   Clear
4:35 AM 82.4 °F 81.7 °F 55.4 °F 39% 30.03 in 10.0 mi SSE 5.8 mph - N/A   Clear
4:55 AM 82.4 °F 81.7 °F 55.4 °F 39% 30.03 in 10.0 mi SSE 6.9 mph - N/A   Clear
5:15 AM 82.4 °F 81.7 °F 55.4 °F 39% 30.03 in 10.0 mi SSE 8.1 mph - N/A   Clear
5:35 AM 82.4 °F 81.7 °F 55.4 °F 39% 30.03 in 10.0 mi SSE 5.8 mph - N/A   Clear
5:55 AM 80.6 °F 80.5 °F 55.4 °F 42% 30.03 in 10.0 mi SSE 5.8 mph - N/A   Clear
6:15 AM 80.6 °F 80.5 °F 55.4 °F 42% 30.04 in 10.0 mi SSE 8.1 mph - N/A   Clear
6:35 AM 80.6 °F 80.3 °F 53.6 °F 39% 30.04 in 10.0 mi SSE 6.9 mph - N/A   Clear
6:55 AM 78.8 °F - 53.6 °F 42% 30.04 in 10.0 mi SSE 5.8 mph - N/A   Clear
7:15 AM 78.8 °F - 53.6 °F 42% 30.04 in 10.0 mi South 4.6 mph - N/A   Clear
7:35 AM 78.8 °F - 53.6 °F 42% 30.05 in 10.0 mi Calm Calm - N/A   Clear
7:55 AM 80.6 °F 80.3 °F 53.6 °F 39% 30.05 in 10.0 mi SE 3.5 mph - N/A   Clear
8:15 AM 82.4 °F - 51.8 °F 35% 30.05 in 10.0 mi Calm Calm - N/A   Clear
8:35 AM 86.0 °F - 50.0 °F 29% 30.05 in 10.0 mi Calm Calm - N/A   Clear
8:55 AM 86.0 °F - 48.2 °F 27% 30.05 in 10.0 mi Calm Calm - N/A   Clear
9:15 AM 87.8 °F - 48.2 °F 25% 30.05 in 10.0 mi Calm Calm - N/A   Clear
9:35 AM 89.6 °F - 46.4 °F 22% 30.05 in 10.0 mi WSW 3.5 mph - N/A   Clear
10:15 AM 95.0 °F - 41.0 °F 15% 30.04 in 10.0 mi West 3.5 mph - N/A   Clear
10:35 AM 96.8 °F - 41.0 °F 15% 30.04 in 10.0 mi West 3.5 mph - N/A   Clear
10:55 AM 98.6 °F - 39.2 °F 13% 30.04 in 10.0 mi SW 9.2 mph - N/A   Clear
11:15 AM 98.6 °F - 37.4 °F 12% 30.03 in 10.0 mi West 5.8 mph - N/A   Clear
11:35 AM 100.4 °F - 37.4 °F 11% 30.03 in 10.0 mi WSW 4.6 mph - N/A   Clear
11:55 AM 100.4 °F - 42.8 °F 14% 30.03 in 10.0 mi SSE 6.9 mph 18.4 mph N/A   Clear
12:15 PM 100.4 °F - 42.8 °F 14% 30.02 in 10.0 mi SSE 10.4 mph 18.4 mph N/A   Clear
12:35 PM 104.0 °F - 41.0 °F 12% 30.02 in 10.0 mi South 15.0 mph 18.4 mph N/A   Clear
12:55 PM 104.0 °F - 41.0 °F 12% 30.01 in 10.0 mi South 13.8 mph 21.9 mph N/A   Clear
1:15 PM 104.0 °F - 39.2 °F 11% 30.00 in 10.0 mi SSE 13.8 mph 23.0 mph N/A   Clear
1:35 PM 104.0 °F - 39.2 °F 11% 29.99 in 10.0 mi SSE 12.7 mph 19.6 mph N/A   Clear
1:55 PM 102.2 °F - 39.2 °F 11% 29.98 in 10.0 mi South 12.7 mph 18.4 mph N/A   Clear
2:15 PM 104.0 °F - 39.2 °F 11% 29.98 in 10.0 mi SSE 13.8 mph - N/A   Clear
2:35 PM 104.0 °F - 37.4 °F 10% 29.97 in 10.0 mi South 6.9 mph 21.9 mph N/A   Clear
2:55 PM 104.0 °F - 41.0 °F 12% 29.96 in 10.0 mi South 10.4 mph 20.7 mph N/A   Clear
3:15 PM 104.0 °F - 39.2 °F 11% 29.96 in 10.0 mi South 9.2 mph 23.0 mph N/A   Clear
3:35 PM 104.0 °F - 41.0 °F 12% 29.95 in 10.0 mi South 15.0 mph 26.5 mph N/A   Clear
3:55 PM 104.0 °F - 39.2 °F 11% 29.94 in 10.0 mi SSE 12.7 mph 24.2 mph N/A   Clear
4:15 PM 105.8 °F - 37.4 °F 10% 29.93 in 10.0 mi South 16.1 mph 20.7 mph N/A   Clear
4:35 PM 105.8 °F - 37.4 °F 10% 29.93 in 10.0 mi SSW 6.9 mph 24.2 mph N/A   Clear
4:55 PM 105.8 °F - 35.6 °F 9% 29.92 in 10.0 mi SSW 8.1 mph - N/A   Clear
5:15 PM 104.0 °F - 37.4 °F 10% 29.91 in 10.0 mi SSW 8.1 mph 16.1 mph N/A   Clear
5:35 PM 104.0 °F - 37.4 °F 10% 29.91 in 10.0 mi SSW 13.8 mph 17.3 mph N/A   Clear
5:55 PM 104.0 °F - 39.2 °F 11% 29.91 in 10.0 mi SW 9.2 mph 17.3 mph N/A   Clear
6:15 PM 104.0 °F - 41.0 °F 12% 29.90 in 10.0 mi South 12.7 mph 21.9 mph N/A   Clear
6:35 PM 104.0 °F - 39.2 °F 11% 29.90 in 10.0 mi South 9.2 mph - N/A   Clear
7:15 PM 104.0 °F - 41.0 °F 12% 29.89 in 10.0 mi South 9.2 mph 17.3 mph N/A   Clear
7:35 PM 102.2 °F - 41.0 °F 12% 29.89 in 10.0 mi South 11.5 mph - N/A   Clear
7:55 PM 100.4 °F - 41.0 °F 13% 29.88 in 10.0 mi South 12.7 mph - N/A   Clear
8:15 PM 100.4 °F - 42.8 °F 14% 29.89 in 10.0 mi South 10.4 mph - N/A   Clear
8:35 PM 98.6 °F - 42.8 °F 15% 29.89 in 10.0 mi South 9.2 mph - N/A   Clear
8:55 PM 96.8 °F - 42.8 °F 16% 29.89 in 10.0 mi South 8.1 mph - N/A   Clear
9:35 PM 96.8 °F - 42.8 °F 16% 29.90 in 10.0 mi South 8.1 mph - N/A   Clear
9:55 PM 95.0 °F - 44.6 °F 18% 29.90 in 10.0 mi South 8.1 mph - N/A   Clear
10:15 PM 93.2 °F - 44.6 °F 19% 29.90 in 10.0 mi South 6.9 mph - N/A   Clear
10:35 PM 91.4 °F - 44.6 °F 20% 29.91 in 10.0 mi SSE 5.8 mph - N/A   Clear
11:15 PM 89.6 °F - 46.4 °F 22% 29.92 in 10.0 mi South 6.9 mph - N/A   Clear
11:35 PM 89.6 °F - 46.4 °F 22% 29.92 in 10.0 mi SSE 6.9 mph - N/A   Clear
11:55 PM 87.8 °F - 46.4 °F 24% 29.92 in 10.0 mi SSE 6.9 mph - N/A   Clear